www.pogodaiklimat.ru

Погода и климат >> Архив погоды >> Россия >> Калининградская область >> Советск


ПОГОДА в Советске

  • Прогноз погоды в Советске
  • Монитор погоды в Советске

АРХИВ ПОГОДЫ в Советске

Время (UTC), дата Ветер
(напр.,м/с)
 
Видим.   Явления Облачность Т
(С)
Тd
(С)
f
(%)
Тe
(С)
Тes
(С)
Комфортность P
(гПа)
Po
(гПа)
Тmin
(С)
Tmax
(С)
R
(мм)
R24
(мм)
S
(см)
09 17.04 СВ 3-6
{7}
20 км ясно +16.0 -0.7 32 +16 +24 1030.4 1025.9
12 17.04 СВ 3-6
{7}
20 км ясно +18.6 -2.3 24 +19 +28 1029.8 1025.3
15 17.04 В 3-6
{8}
20 км ясно +18.7 -2.6 23 +19 +22 1029.3 1024.8
18 17.04 В 1-2
{6}
20 км ясно +14.0 -2.0 33 +15 +15 1030.3 1025.8 +19.5
21 17.04 СВ 2-3
{3}
20 км ясно +9.8 -2.2 43 +9 +9 1031.5 1026.9
00 18.04 СВ 2-3
{4}
20 км ясно +6.0 -1.2 60 +4 +4 1032.3 1027.6
03 18.04 В 1-2
{3}
20 км ясно +4.2 -0.6 71 +3 +3 1032.9 1028.1 +4.0
06 18.04 В 1-2
{2}
20 км ясно +9.5 +0.8 55 +9 +13 1033.7 1029.1 +3.7
09 18.04 СВ 2-5
{5}
20 км ясно +17.5 -1.9 27 +18 +28 1034.0 1029.5
12 18.04 СВ 2-6
{6}
20 км ясно +20.0 -3.2 21 +20 +31 1032.9 1028.4
15 18.04 СЗ 5-8
{8}
20 км ясно +17.8 +1.0 32 +17 +19 1032.0 1027.4
18 18.04 СЗ 3-5
{7}
20 км 4/0
[Ci fib]
+13.5 +1.8 45 +13 +13 1032.3 1027.7 +20.6
21 18.04 СВ 2-3
{5}
20 км 3/0
[Ci fib]
+9.6 -0.5 49 +8 +8 1033.4 1028.8
00 19.04 С 2-3
{3}
20 км ясно +7.9 -2.0 50 +6 +6 1034.2 1029.5
03 19.04 СЗ 2-2
{3}
20 км ясно +4.9 -0.9 66 +3 +3 1034.1 1029.4 +4.9
06 19.04 СВ 1-1
{2}
20 км ясно +9.2 -0.2 52 +9 +13 1034.6 1030.0 +4.6
09 19.04 СЗ 3-5
{5}
20 км ясно +15.4 +1.2 38 +15 +24 1034.7 1030.2
12 19.04 СЗ 2-4
{5}
20 км ясно +19.3 +0.5 28 +20 +31 1033.2 1028.7
15 19.04 СЗ 4-7
{8}
20 км ясно +17.8 0.0 30 +18 +20 1032.0 1027.5
18 19.04 З 3-6
{8}
20 км ясно +12.9 0.0 41 +12 +12 1031.7 1027.1 +19.9
21 19.04 СВ 2-2
{5}
20 км ясно +7.0 +1.6 68 +5 +5 1032.2 1027.5
00 20.04 С 1-1
{3}
20 км 4/0
[Ci fib]
+8.4 -2.4 47 +8 +8 1031.5 1026.9
03 20.04 СЗ 2-3
{4}
20 км 4/0
[Ci fib]
+6.3 -1.0 60 +4 +4 1031.1 1026.3 +5.8
06 20.04 СЗ 2-3
{4}
20 км 6/0
[Ci fib]
+8.0 +0.9 61 +6 +9 1030.8 1026.2 +5.8
09 20.04 С 3-6
{7}
20 км 8/0
[Cs]
+15.4 -1.3 32 +15 +23 1029.9 1025.4
12 20.04 С 3-6
{8}
20 км 8/0
[Ac trans Ci fib]
+16.8 +1.9 37 +17 +24 1028.3 1023.8
15 20.04 СЗ 4-7
{9}
20 км 8/0
[Ac trans]
+14.8 +2.6 44 +14 +15 1026.8 1022.3
18 20.04 СЗ 3-4
{8}
20 км 9/9 600 м
[Sc]
+12.2 +4.6 60 +11 +11 1026.3 1021.8 +17.9
21 20.04 С 3-4
{6}
20 км 3/3 600 м
[Sc]
+8.5 +3.0 68 +6 +6 1026.4 1021.8
00 21.04 СЗ 2-3
{4}
20 км 9/9 600 м
[Sc]
+7.4 +3.3 75 +5 +5 1025.0 1020.4
03 21.04 СЗ 2-4
{6}
20 км 10/10 600 м
[Sc]
+6.2 +2.4 77 +4 +4 1024.0 1019.4 +6.0
06 21.04 СЗ 1-2
{4}
20 км 10/10 600 м
[Sc]
+6.7 +2.8 76 +6 +6 1023.1 1018.5 +5.8
09 21.04 СВ 2-3
{4}
20 км 9/9 600 м
[Sc]
+9.9 +2.9 62 +9 +10 1022.7 1018.0
12 21.04 СВ 3-6
{6}
20 км 8/8 600 м
[Cu med, cong]
+13.5 -2.4 33 +13 +15 1021.3 1016.8
15 21.04 В 3-6
{10}
20 км 8/8 600 м
[Cu med, cong]
+12.0 +1.0 47 +11 +11 1021.4 1016.9
18 21.04 В 2-4
{8}
20 км 10/10 600 м
[Sc]
+8.3 +2.4 66 +7 +7 1022.5 1017.9 +15.4
21 21.04 В 1-3
{4}
20 км ясно +5.7 +2.7 81 +5 +5 1023.4 1018.8
00 22.04 В 2-3
{6}
20 км ясно +5.7 +3.2 84 +3 +3 1023.6 1019.0
03 22.04 В 2-3
{5}
20 км ясно +4.6 +2.8 88 +2 +2 1024.7 1020.0 +4.3
06 22.04 В 3-5
{6}
20 км ясно +9.0 +4.8 75 +7 +10 1026.4 1021.8 +4.3
09 22.04 ЮВ 3-8
{10}
20 км 1/0
[Ci fib]
+16.0 +5.1 48 +16 +25 1026.8 1022.3
12 22.04 -6
{11}
20 км н/о +19.2 +2.8 34 +19 +22 1026.1 1021.7
15 22.04 ЮВ 3-7
{10}
20 км 8/8 600 м
[Cu hum]
+18.2 +0.1 29 +18 +19 1025.9 1021.5
18 22.04 ЮВ 2-4
{8}
20 км 3/3 600 м
[Cu hum]
+13.9 -0.1 38 +14 +14 1026.7 1022.2 +20.4
21 22.04 ЮВ 2-3
{4}
20 км ясно +10.6 -1.4 43 +10 +10 1027.7 1023.1
00 23.04 ЮВ 3-4
{5}
20 км ясно +8.5 -1.5 49 +6 +6 1028.0 1023.4
03 23.04 ЮВ 2-4
{5}
20 км ясно +5.5 -1.7 60 +3 +3 1028.8 1024.0 +5.1
06 23.04 В 2-4
{5}
20 км ясно +10.8 -0.3 46 +10 +14 1029.0 1024.4 +5.1
09 23.04 ЮВ 4-10
{10}
20 км ясно +18.9 -4.4 20 +19 +26 1028.5 1024.0
12 23.04 В 6-12
{13}
20 км ясно +20.0 -4.7 18 +19 +24 1026.6 1022.2
15 23.04 ЮВ 5-10
{12}
20 км ясно +20.0 -4.2 19 +20 +22 1024.3 1019.9
18 23.04 ЮВ 3-5
{11}
20 км ясно +15.7 -3.4 27 +15 +15 1024.0 1019.5 +20.6
21 23.04 В 3-4
{5}
20 км ясно +11.4 -2.8 37 +10 +10 1024.1 1019.5
00 24.04 ЮВ 3-6
{7}
20 км ясно +11.3 -2.9 37 +10 +10 1023.9 1019.3
03 24.04 ЮВ 3-5
{8}
20 км ясно +9.2 -3.1 42 +7 +7 1023.6 1019.0 +9.0
06 24.04 ЮВ 4-8
{9}
20 км ясно +13.8 -2.2 33 +13 +15 1023.4 1018.9 +9.0

 

Местоположение метеостанции Советск (Калининградская область, Россия): широта 55.08 долгота 21.93 высота над уровнем моря 36 м.

В архиве по умолчанию представлена погода в Советске за последнюю неделю. Архивные данные за месяц целиком и за предыдущие месяцы, начиная с января 2011 года, Вы можете получить, выбрав интересующий диапазон дат из раскрывающегося списка и нажав кнопку "Ввод!".


*Определитесь, кто Вы:
робот инопланетянин человек

Внимание! Время в таблицах - всемирное. Для получения местного времени необходимо прибавить поправку, которая равна 2 ч.

Смотрите также архив погоды в соседних городах и на ближайших метеорологических станциях:

Погода в Шилуте (Литва) (43 км)
Погода в Черняховске (Калининградская область, Россия) (51 км)
Погода в Лаукуве (Литва) (63 км)
Погода в Ниде (Литва) (64 км)
Погода в Рыбачем (Калининградская область, Россия) (70 км)
Погода в Кибартае (Литва) (74 км)
Погода в Расейняе (Литва) (85 км)
Погода в Виштынце (Калининградская область, Россия) (88 км)
Погода в Железнодорожном (Калининградская область, Россия) (89 км)
Погода в Kлайпеде (Литва) (90 км)

Пояснения к столбцам:

Ветер - указаны скорость ветра в м/с - средняя за 10 мин, порывы в срок и между сроками (в фигурных скобках) и направление, откуда дует ветер: С - северный, СВ - северо-восточный, В - восточный, ЮВ - юго-восточный, Ю - южный, ЮЗ - юго-западный, З - западный, СЗ - северо-западный.
Видимость - горизонтальная дальность видимости в метрах или километрах. При видимости от 1 до 10 км при отсутствии осадков обычно наблюдается дымка, при ухудшении видимости до 1 км и менее - туман. В сухую погоду видимость может ухудшаться дымом, пылью или мглою.
Явления - указаны атмосферные явления, наблюдавшиеся в срок или в последний час перед сроком; фигурными скобками обозначены явления, наблюдавшиеся между сроками (за 1-3 часа до срока); квадратными скобками обозначены град или гололедные отложения с указанием их диаметра в мм.
Облачность - указаны через наклонную черту общая и нижняя облачность в баллах и высота нижней границы облаков в метрах; квадратными скобками обозначены формы облаков: Ci - перистые, Cs - перисто-слоистые, Cc - перисто-кучевые, Ac - высококучевые, As - высокослоистые, Sc - слоисто-кучевые, Ns - слоисто-дождевые, Cu - кучевые, Cb - кучево-дождевые. Подробнее классификацию облаков см. в Атласе облаков (PDF).
T - Температура воздуха - температура, измеренная на высоте 2 м над землей.
Td - Температура точки росы - температура, при понижении до которой содержащийся в воздухе водяной пар достигнет насыщения.
f - Относительная влажность воздуха - влажноcть воздуха, измеренная на высоте 2 м над землей.
Te - Эффективная температура - температура, которую ощущает одетый по сезону человек в тени. Характеристика душности погоды. При расчете учитывается влияние влажности воздуха и скорости ветра на теплоощущения человека.
Tes - Эффективная температура на солнце - температура, которую ощущает человек, с поправкой на солнечный нагрев. Характеристика знойности погоды. Зависит от высоты солнца над горизонтом, облачности и скорости ветра. Ночью, в пасмурную погоду, а также при ветре 12 м/с и более поправка равна нулю.
P - Атмосферное давление - приведенное к уровню моря атмосферное давление.
Po - Атмосферное давление - измеренное на уровне метеостанции атмосферное давление.
Tmin - Минимальная температура - минимум температуры воздуха на высоте 2 м над землей.
Tmax - Максимальная температура - максимум температуры воздуха на высоте 2 м над землей.
R - Количество осадков - Количество выпавших осадков за период времени, мм. При наведении курсора мыши на число - период времени, за который выпало указанное количество осадков.
R24 - Количество осадков - Количество выпавших осадков за 24 часа, мм.
S - Снежный покров - Высота снежного покрова, см. При наведении курсора мыши на число - состояние снежного покрова и степень покрытия местности в баллах.